Location: Peebles
(55.6412°N, 3.1714°W)
Time: 23:05:28
(UTC+00:00)

RS-15 - Pass Details

Date: 08 December 2023
Orbit: 1893 x 2151 km, 64.8° (Epoch: 01 March)

Event Time Altitude Azimuth Distance (km) Brightness Sun altitude
Rises 21:43:22 0° 233° (SW) 5,644 10.6 -48.1°
Reaches altitude 10° 21:46:50 10° 235° (SW) 4,625 10.1 -48.5°
Enters shadow 21:52:53 36° 241° (WSW) 2,981 8.9 -49.1°
